Flag for Brazil

Past Weather in Volta Redonda, Rio de Janeiro, Brazil — Yesterday and Last 2 Weeks

Now
73 °F

Scattered clouds.


Feels Like: 74 °F
Forecast: 83 / 56 °F
Wind: 3 mph from North

Location: Galeao

Current Time: Jul 7, 2020 at 10:44:51 am

Latest Report: Jul 7, 2020 at 10:00 am


Visibility: 4 mi

Pressure: 30.07 "Hg

Humidity: 78%

Dew Point: 66 °F

Location of Volta RedondaLocation

Past Weather in Volta Redonda — Graph

°F

Volta Redonda Temperature Yesterday

Maximum temperature yesterday: 88 °F (at 1:00 pm)
Minimum temperature yesterday: 63 °F (at 4:00 am)
Average temperature yesterday: 73 °F

High & Low Weather Summary for the Past Weeks

 TemperatureHumidityPressure
High90 °F (Jun 22, 2:00 pm)94% (Jun 27, 5:00 am)30.27 "Hg (Jun 27, 5:00 am)
Low59 °F (Jun 24, 4:00 am)29% (Jun 22, 2:00 pm)29.71 "Hg (Jul 1, 1:00 pm)
Average72 °F70%30.02 "Hg
* Reported Jun 22 9:00 am — Jul 7 9:00 am, Volta Redonda. Weather by CustomWeather, © 2020

Note: Actual official high and low records may vary slightly from our data, if they occured in-between our weather recording intervals... More about our weather records

Volta Redonda Weather History for the Previous 24 Hours

Scroll right to see more
 ConditionsComfort  
Time TempWeatherWind HumidityBarometerVisibility
9:00 am
Tue, Jul 7
73 °FScattered clouds.2 mph78%30.07 "Hg4 mi
8:00 am70 °FFog.2 mph83%30.07 "Hg3 mi
7:00 am66 °FFog.2 mph94%30.07 "Hg3 mi
6:00 am68 °FPassing clouds.2 mph88%30.07 "Hg5 mi
5:00 am68 °FPartly cloudy.6 mph88%30.07 "Hg5 mi
4:00 am68 °FFog.3 mph88%30.07 "Hg3 mi
3:00 am68 °FPassing clouds.5 mph94%30.07 "Hg5 mi
2:00 am70 °FPassing clouds.3 mph88%30.07 "Hg6 mi
1:00 am70 °FClear.5 mph88%30.07 "Hg10 mi
12:00 am72 °FClear.6 mph83%30.07 "Hg10 mi
11:00 pm
Mon, Jul 6
72 °FClear.5 mph83%30.09 "Hg10 mi
10:00 pm73 °FClear.8 mph78%30.09 "Hg10 mi
9:00 pm73 °FClear.8 mph78%30.07 "Hg10 mi
8:00 pm73 °FClear.8 mph78%30.04 "Hg10 mi
7:00 pm75 °FClear.9 mph69%30.04 "Hg10 mi
6:00 pm77 °FClear.10 mph61%30.01 "Hg10 mi
5:00 pm81 °FSunny.13 mph48%30.01 "Hg10 mi
4:00 pm84 °FSunny.15 mph40%29.98 "Hg10 mi
3:00 pm88 °FSunny.10 mph38%29.95 "Hg10 mi
2:00 pm84 °FSunny.12 mph45%29.95 "Hg10 mi
1:00 pm88 °FSunny.3 mph40%29.98 "Hg10 mi
12:00 pm86 °FSunny.2 mph43%29.98 "Hg10 mi
11:00 am81 °FSunny.6 mph54%30.01 "Hg10 mi
10:00 am77 °FSunny.3 mph61%30.01 "Hg10 mi
Weather by CustomWeather, © 2020

See weather overview